Time,TemperatureF,DewpointF,PressureIn,WindDirection,WindDirectionDegrees,WindSpeedMPH,WindSpeedGustMPH,Humidity,HourlyPrecipIn,Conditions,Clouds,dailyrainin,SoftwareType,DateUTC
2013-01-18 09:33:00,18.0,14.0,-100.00,WSW,254,1.0,-999.0,84,-99.99,,,-99.99,,2013-01-18 16:33:00,
2013-01-18 11:33:00,29.0,20.0,-100.00,North,0,1.0,-999.0,67,-99.99,,,-99.99,,2013-01-18 18:33:00,
2013-01-18 13:00:00,35.0,20.0,-100.00,NNW,346,6.0,-999.0,53,-99.99,,,-99.99,,2013-01-18 20:00:00,
2013-01-18 13:33:00,35.0,20.0,-100.00,NNW,346,6.0,-999.0,53,-99.99,,,-99.99,,2013-01-18 20:33:00,
2013-01-18 13:42:00,35.0,20.0,-100.00,NNW,346,6.0,-999.0,53,-99.99,,,-99.99,,2013-01-18 20:42:00,
2013-01-18 13:53:00,35.0,20.0,-100.00,NNW,346,6.0,-999.0,53,-99.99,,,-99.99,,2013-01-18 20:53:00,
2013-01-18 15:00:00,38.0,19.0,-100.00,NNW,338,3.0,-999.0,45,-99.99,,,-99.99,,2013-01-18 22:00:00,
2013-01-18 15:32:00,38.0,19.0,-100.00,NNW,338,3.0,-999.0,45,-99.99,,,-99.99,,2013-01-18 22:32:00,
2013-01-18 15:42:00,38.0,19.0,-100.00,NNW,338,3.0,-999.0,45,-99.99,,,-99.99,,2013-01-18 22:42:00,
2013-01-18 15:53:00,38.0,19.0,-100.00,NNW,338,3.0,-999.0,45,-99.99,,,-99.99,,2013-01-18 22:53:00,
2013-01-18 17:32:00,26.0,20.0,-100.00,SSW,207,1.0,-999.0,77,-99.99,,,-99.99,,2013-01-19 00:32:00,
2013-01-18 19:33:00,20.0,17.0,-100.00,SW,222,1.0,-999.0,87,-99.99,,,0.00,,2013-01-19 02:33:00,
2013-01-18 19:42:00,20.0,17.0,-100.00,SW,222,1.0,-999.0,87,-99.99,,,0.00,,2013-01-19 02:42:00,
2013-01-18 19:53:00,20.0,17.0,-100.00,SW,222,1.0,-999.0,87,-99.99,,,0.00,,2013-01-19 02:53:00,
2013-01-18 21:00:00,18.0,16.0,-100.00,SW,229,2.0,-999.0,88,-99.99,,,0.00,,2013-01-19 04:00:00,
2013-01-18 21:32:00,18.0,16.0,-100.00,SW,229,2.0,-999.0,88,-99.99,,,0.00,,2013-01-19 04:32:00,
2013-01-18 23:00:00,17.0,14.0,-100.00,WSW,237,1.0,-999.0,87,-99.99,,,-99.99,,2013-01-19 06:00:00,
2013-01-18 23:32:00,17.0,14.0,-100.00,WSW,237,1.0,-999.0,87,-99.99,,,-99.99,,2013-01-19 06:32:00,
2013-01-18 23:43:00,17.0,14.0,-100.00,WSW,237,1.0,-999.0,87,-99.99,,,-99.99,,2013-01-19 06:43:00,
2013-01-18 23:53:00,17.0,14.0,-100.00,WSW,237,1.0,-999.0,87,-99.99,,,-99.99,,2013-01-19 06:53:00,